Tracking 34085 objects as of 13-May-2026
HD Live streaming from Space Station
objects crossing your sky now

STARLINK-37164

Track STARLINK-37164 now!
10-day predictions
STARLINK-37164 is classified as:


NORAD ID: 68324
Int'l Code: 2026-059D
Perigee: 481.2 km
Apogee: 483.5 km
Inclination: 53.2 °
Period: 94.1 minutes
Semi major axis: 6853 km
RCS: Unknown
Launch date: March 22, 2026
Source: United States (US)
Launch site: AIR FORCE EASTERN TEST RANGE (AFETR)
Your satellite tracking list
Your tracking list is empty




NASA's NSSDC Master Catalog

Two Line Element Set (TLE):
1 68324U 26059D   26132.94341467  .00009226  00000-0  32321-3 0  9990
2 68324  53.1593  49.7840 0001622  98.8386 261.2798 15.30202087  9143
Source of the keplerian elements: AFSPC